STARLINK-30259 (57521 NORAD) Tracking and Keplerian Element Data

This shows tracking and keplerian element data for the satellite.

Feedback or suggestion? Click here.




ElementValue
Catalog57521
NameSTARLINK-30259
Epoch Orbit2511
Epoch Day13.20846048
Epoch Year2024
RAAN318.5543
Inclination43.0025
Eccentricity9.56E-05
Argument of Perigee269.4614
Mean Anonmoly90.6119
Mean Motion15.02530655
Decay Rate0.00028239
L11 57521U 23115A 24013.20846048 .00028239 00000+0 20974-2 0 9991
L22 57521 43.0025 318.5543 0000956 269.4614 90.6119 15.02530655 25114



Live tracking and technical data element details for STARLINK-30259 (NORAD 57521). STARLINK-30259 can be tracked NOW for your location showing map with azimuth and elevation plus other details from your city location.







IsCatalogInMostPopularTable: catalog: 57521, numindb: 31
Update: records affected: 1



GetName: 57521 STARLINK-30259

Hit Count: updated at: Thu, 22 Feb 2024 00:29:37 GMT